{"data":{"norad_id":49809,"intl_designator":"2021-116A","name":"GSAT0223 (GALILEO 27)","alt_names":[],"object_type":"PAYLOAD","status":"ACTIVE","operator":null,"country":"ESA","launch_date":"2021-12-05","launch_site_code":"FRGUI","launch_vehicle":null,"mission":null,"orbit_class":"UNKNOWN","rcs_meters":null,"size_class":null,"mass_kg":null,"dimensions":null,"purposes":["earth_obs","nav"],"wikipedia_slug":null,"has_3d_model":false,"image_url":null,"decayed_at":null,"tle_current":{"epoch":"2026-05-22T18:27:52.519968Z","epoch_age_seconds":277848,"freshness":"STALE","line1":"1 49809U 21116A   26142.76935787 -.00000088  00000+0  00000+0 0  9993","line2":"2 49809  57.1681 342.3603 0000787 191.0979 169.2233  1.70475764 27757","mean_motion":1.70475764,"eccentricity":7.87e-5,"inclination_deg":57.1681,"raan_deg":342.3603,"arg_perigee_deg":191.0979,"mean_anomaly_deg":169.2233,"bstar":0,"rev_number":2775,"period_min":844.69485058298,"perigee_km":23219.649334985,"apogee_km":23224.308393222,"semimajor_km":29600.115864103,"source":"CELESTRAK","updated_at":"2026-05-25T13:38:24.061349Z"}}}